Weather Roundup
Issued by NWS

Home | Current Version | Previous Version | Text Only | Print | Product List | Glossary On
Versions: 1 2 3 4 5 6 7 8 9 10 11 12 13 14 15 16 17 18 19 20 21 22 23 24 25 26 27 28 29 30 31 32 33 34 35 36 37 38 39 40 41 42 43 44 45 46 47 48 49 50
000
NZUS93 KARX 240910
HRRWXR

CURRENT HOURLY OBSERVATIONS ACROSS
MUCH OF THE UPPER MISSISSIPPI VALLEY
NATIONAL WEATHER SERVICE LA CROSSE WI
400 AM CDT THU JUL 24 2014


...SOUTHEAST MINNESOTA...


CITY           SKY/WX    TMP DP  RH WIND       PRES   REMARKS
ROCHESTER      CLEAR     58  53  84 CALM      30.19S
ROCHESTER/MAYO FAIR      61  57  88 CALM      30.18S
WINONA         CLEAR     59  57  94 CALM      30.17S
AUSTIN         PTCLDY    57  55  94 CALM      30.17F
ALBERT LEA     CLEAR     55  54  94 CALM      30.17S
DODGE CENTER   CLEAR     57  54  88 CALM      30.17F
PRESTON        CLEAR     61  58  89 CALM      30.18S
OWATONNA       CLEAR     55  52  88 CALM      30.17S
FARIBAULT      CLEAR     55  48  76 CALM      30.17S
$$

...ELSEWHERE IN MINNESOTA...


CITY           SKY/WX    TMP DP  RH WIND       PRES   REMARKS
MINNEAPOLIS    CLEAR     65  56  72 E3        30.16S
INTNL FALLS    CLEAR     46  45  96 CALM      30.18R
DULUTH         MOCLDY    57  50  77 SE3       30.19R
RED WING       CLEAR     55  54  94 CALM      30.15F
REDWOOD FALLS  CLEAR     59  53  80 CALM      30.16S
MANKATO        CLEAR     61  50  67 CALM      30.16F
WORTHINGTON    CLEAR     57  52  82 CALM      30.18F
FAIRMONT       CLEAR     57  50  77 CALM      30.16F
$$

...SOUTHWEST WISCONSIN...


CITY           SKY/WX    TMP DP  RH WIND       PRES   REMARKS
LA CROSSE      PTCLDY    61  58  90 CALM      30.16S
PRAIRIE DU CHI CLEAR     60  55  81 E5        30.17S
BOSCOBEL       CLEAR     56  54  93 CALM      30.19R
LONE ROCK      CLOUDY    62  54  74 CALM      30.19R
PLATTEVILLE    CLEAR     58  54  87 CALM      30.19S
FORT MC COY    CLEAR     51  49  95 CALM      30.18S
CAMP DOUGLAS   PTCLDY    55  55 100 E2        30.19R
VIROQUA        FAIR      59  58  97 SE6       30.19R
WIS DELLS      PTCLDY    54  49  83 CALM      30.19R
$$

...ELSEWHERE IN WISCONSIN...


CITY           SKY/WX    TMP DP  RH WIND       PRES   REMARKS
MILWAUKEE      CLEAR     56  50  80 NW3       30.15F
MADISON        PTCLDY    54  51  90 N5        30.19R
GREEN BAY      PTCLDY    53  51  93 W3        30.19R
EAU CLAIRE     CLOUDY    55  54  96 CALM      30.17S
BLACK RVR FLS  FAIR      48  47  99 CALM      30.17S
MEDFORD        CLEAR     53  51  93 E3        30.20R
WAUSAU         PTCLDY    54  51  90 SE3       30.19R
WIS RAPIDS     PTCLDY    55  52  89 CALM      30.21R
MARSHFIELD     CLEAR     56  52  86 SE6       30.19R
RICE LAKE      MOCLDY    55  54  94 CALM      30.19F
$$

...NORTHEAST IOWA...


CITY           SKY/WX    TMP DP  RH WIND       PRES   REMARKS
WATERLOO       CLEAR     56  54  93 NW3       30.15S
DUBUQUE        CLEAR     58  53  84 SE3       30.18S
DECORAH        CLEAR     57  55  94 CALM      30.16S
MASON CITY     CLEAR     53  52  96 CALM      30.18F
CHARLES CITY   CLEAR     57  55  94 N5        30.17F
OELWEIN        CLEAR     57  55  94 CALM      30.17S
$$

...ELSEWHERE IN IOWA...


CITY           SKY/WX    TMP DP  RH WIND       PRES   REMARKS
DES MOINES     CLEAR     65  60  84 CALM      30.15F
IOWA CITY      PTCLDY    64  59  83 E3        30.17R
FORT DODGE     MOCLDY    59  57  94 CALM      30.17F
MARSHALLTOWN   PTCLDY    59  56  89 CALM      30.16S
CEDAR RAPIDS   MOCLDY    61  56  83 CALM      30.15S
$$

...NORTHERN ILLINOIS...


CITY           SKY/WX    TMP DP  RH WIND       PRES   REMARKS
CHICAGO-OHARE  CLEAR     58  50  75 N7        30.13S
DUPAGE         CLEAR     53  50  89 N6        30.14S
CHICAGO-MIDWAY CLEAR     61  55  81 NW7       30.12S
MOLINE         CLEAR     57  53  86 CALM      30.16R
ROCKFORD       CLEAR     57  48  72 NE5       30.19R
STERLING       CLEAR     55  50  82 CALM      30.17R
PEORIA         CLEAR     61  52  72 N3        30.14R
$$

NOTE: "FAIR" INDICATES FEW OR NO CLOUDS BELOW 12,000 FEET WITH NO
SIGNIFICANT WEATHER AND/OR OBSTRUCTIONS TO VISIBILITY. WIND
SPEEDS ARE IN MILES-PER-HOUR.



USA.gov is the U.S. government's official web portal to all federal, state and local government web resources and services.